Location: Holyhead Bay
(53.3667°N, 4.6667°W)
Time: 01:04:24
(UTC+00:00)

IRIDIUM 33 DEB - Pass Details

Date: 30 September 2021
Orbit: 583 x 600 km, 86.4° (Epoch: 15 October)

Event Time Altitude Azimuth Distance (km) Brightness Sun altitude
Rises 04:26:17 0° 354° (N) 2,850 ? -17.3°
Reaches altitude 10° 04:28:30 10° 354° (N) 1,940 ? -17.0°
Maximum altitude 04:32:46 82° 269° (W) 604 ? -16.4°
Drops below altitude 10° 04:36:59 10° 180° (S) 1,912 ? -15.8°
Sets 04:39:09 0° 180° (S) 2,805 ? -15.5°
